Date,TemperatureHighF,TemperatureAvgF,TemperatureLowF,DewpointHighF,DewpointAvgF,DewpointLowF,HumidityHigh,HumidityAvg,HumidityLow,PressureMaxIn,PressureMinIn,WindSpeedMaxMPH,WindSpeedAvgMPH,GustSpeedMaxMPH,PrecipitationSumIn
2013-5-1,84.6,64.4,51.3,54.2,48.2,36.5,88,60,33,30.45,30.33,13,3,14,0.00
2013-5-2,83.5,63.9,47.2,46.3,37.4,31.7,66,40,18,30.49,30.35,10,2,12,0.00
2013-5-3,81.2,63.5,46.3,46.4,40.1,34.8,69,45,26,30.39,30.30,16,4,21,0.00
2013-5-4,79.6,60.5,45.7,45.6,41.0,36.2,77,51,29,30.35,30.23,11,3,14,0.00
2013-5-5,82.1,61.3,45.4,43.6,35.5,23.8,79,44,13,30.29,30.16,15,3,15,0.00
2013-5-6,77.6,60.5,44.5,53.2,44.4,31.2,75,56,40,30.24,30.15,11,3,14,0.00
2013-5-7,78.8,63.6,54.7,56.4,52.7,49.7,86,69,44,30.19,30.11,8,1,11,0.00
2013-5-8,76.9,63.5,52.7,55.4,51.5,44.9,92,68,34,30.15,30.05,8,1,9,0.00
2013-5-9,82.4,63.9,50.9,56.6,50.2,38.7,89,65,26,30.14,30.06,6,0,7,0.00
2013-5-10,77.4,62.4,52.9,63.7,55.8,45.6,93,80,55,30.14,29.95,12,1,21,0.00
2013-5-11,60.5,55.4,50.2,58.5,50.8,45.4,94,85,73,29.99,29.92,10,0,10,0.00
2013-5-12,51.7,45.7,34.4,48.2,32.0,27.2,88,61,40,30.18,29.96,19,3,23,0.00
2013-5-13,54.2,42.4,31.9,32.7,27.0,22.1,85,58,30,30.30,30.17,9,1,9,0.00
2013-5-14,69.3,46.7,28.4,43.2,33.3,23.0,86,62,38,30.31,30.03,2,0,4,0.00
2013-5-15,88.2,66.1,47.7,65.4,52.3,37.2,84,63,37,30.03,29.88,22,1,22,0.00
2013-5-16,85.1,68.9,55.6,59.9,50.9,39.2,92,59,23,30.13,29.93,0,0,0,0.00
2013-5-17,86.4,64.1,44.8,61.4,50.4,40.2,87,64,34,30.27,30.13,0,0,0,0.00
2013-5-18,92.5,68.9,53.3,60.3,51.7,41.9,78,56,29,30.29,30.17,4,0,4,0.00
2013-5-19,81.5,68.9,56.9,64.8,60.0,54.0,92,75,55,30.26,30.13,5,0,5,0.00
2013-5-20,95.4,77.8,58.3,70.6,65.0,55.4,93,67,42,30.19,30.06,5,1,5,0.00
2013-5-21,93.2,76.4,63.9,71.1,65.2,60.7,92,71,42,30.12,29.99,10,1,10,0.00
2013-5-22,92.3,73.6,64.3,67.5,62.6,58.7,82,70,42,30.05,29.92,8,2,12,0.00
2013-5-23,77.0,65.9,47.3,64.7,59.9,44.9,91,82,56,30.07,29.92,6,1,10,0.00
2013-5-24,48.6,44.0,38.2,44.7,37.0,31.0,92,77,61,30.41,30.08,9,2,9,0.00
2013-5-25,64.1,47.1,32.9,40.3,33.7,28.5,90,63,32,30.45,30.36,9,1,9,0.00
2013-5-26,73.6,51.0,32.9,41.7,34.8,28.3,88,58,25,30.43,30.35,4,0,8,0.00
2013-5-27,65.0,52.3,36.0,51.5,41.8,31.3,90,69,46,30.41,30.23,2,0,4,0.00
2013-5-28,83.0,65.0,52.6,70.8,58.7,46.5,94,81,57,30.24,30.12,6,1,8,0.00
2013-5-29,89.1,75.0,64.8,67.8,62.0,57.6,85,66,45,30.24,30.14,9,2,9,0.00
2013-5-30,92.2,73.6,59.9,68.7,62.4,56.1,89,70,43,30.33,30.23,5,0,6,0.00
2013-5-31,93.4,75.0,60.8,68.3,62.7,58.0,92,69,39,30.27,30.14,13,1,18,0.00